Погода в Бяле

Болгария     42°52′16″N   27°53′19″E
темп.,
°C
ветер,
м/с
пор.,
м/с
влажн.,
%
обл.,
%
осадки,
мм/ч
давл.,
гПа
погр.,
м
13 июня, вс
вс1300:00+20зсз337985 0.4 101496
03:00+19сз33795 0.5 1014130
06:00+19зюз34775 0.0 1013166
09:00+19юз45765 0.0 1012250
12:00+21ююз67715 0.0 1011378
15:00+22ю7874100 0.1 1010304
18:00+20з51077100 3.3 1010605
21:00+18с121285100 9.8 1011774
14 июня, пн
пн1400:00+16ссз911808 0.0 1013665
03:00+16ссз813765 0.0 1013682
06:00+15ссз7107936 0.0 1013536
09:00+16ссз686928 0.0 1014645
12:00+18св666184 0.0 1014962
15:00+19в225620 0.2 1014602
18:00+18юз116010 0.8 1013329
21:00+18зсз226894 1.4 1013149
15 июня, вт
вт1500:00+18сз5570100 0.8 1013394
03:00+16ссз7882100 1.1 1013457
06:00+15ссз8983100 0.1 1014524
09:00+17ссз91277100 0.2 1014937
12:00+17ссз71070100 0.2 10141130
15:00+18сз111269100 0.5 10121066
18:00+16зсз101383100 0.9 1011660
21:00+16з91589100 13.1 1008793
16 июня, ср
ср1600:00+17сз101785100 6.4 10081094
03:00+18сз13178699 7.1 1007946
06:00+19ссз13178288 0.1 1008966
09:00+19ссз13168199 0.1 10091057
12:00+19ссз13168395 0.2 10101032
15:00+21ссз11137727 0.5 10111105
18:00+21ссз9117695 0.2 1012947
21:00+21сз69788 0.3 1013575
17 июня, чт
чт1700:00+19зсз698291 0.6 1014355
03:00+20сз5117735 0.6 1014381
06:00+19з557512 0.0 1014161
09:00+20сз7137498 1.6 1015679
12:00+22ссз797210 0.1 1016620
15:00+23с457411 0.4 1016174
18:00+23вюв11765 0.4 101694
21:00+22юз557895 0.7 101670